Location: Borden
(51.3167°N, 0.7000°E)
Time: 19:05:27
(UTC+00:00)

Daily predictions for brighter satellites

Satellite Brightness Start Highest point End
(mag) Time Altitude Azimuth Time Altitude Azimuth Time Altitude Azimuth
CZ-4 R/B 1.4 18:05:52 10° SSE 18:09:40 57° ENE 18:13:32 10° N
H-2A R/B 2.2 18:04:27 10° SSE 18:09:49 63° ENE 18:15:12 10° N
USA 305 3.1 18:05:34 10° WSW 18:09:52 74° NNW 18:14:09 10° ENE
Gbstr 26 Del rocket 3.2 18:08:20 10° WSW 18:12:35 77° SSE 18:17:50 10° ENE
IRS-1C Rocket 4.1 18:08:20 10° SSE 18:13:36 80° ENE 18:18:55 10° NNW
SL-4 R/B 1.6 18:11:17 10° W 18:14:56 84° N 18:18:23 10° E
Meteor 1-20 Rocket 4.2 18:10:36 10° S 18:15:56 58° E 18:21:20 10° NNE
Cosmos 1302 Rocket 4.0 18:10:55 10° SSW 18:16:04 69° ESE 18:21:17 10° NNE
CSL-04 DEB 4.3 18:13:58 10° NNE 18:17:55 69° ESE 18:21:54 10° S
USA 307 3.1 18:16:52 10° W 18:21:10 71° NNW 18:25:26 10° ENE
FALCON 9 DEB 3.2 18:19:08 10° WNW 18:22:34 82° SSW 18:26:00 10° ESE
ATLAS CENTAUR R/B 2.7 18:22:13 10° SSE 18:24:32 16° ESE 18:26:52 10° ENE
USA 306 3.1 18:20:18 10° W 18:24:34 69° NNW 18:28:50 10° ENE
Cosmos 1354 Rocket 4.2 18:19:31 10° NNW 18:24:40 51° ENE 18:29:45 10° SE
USA 186 3.2 18:25:07 11° ENE 18:25:43 12° ENE 18:26:39 10° NE
Cosmos 44 Rocket 3.7 18:20:46 10° NW 18:26:01 77° SW 18:31:13 10° SSE
FALCON 9 DEB 3.2 18:23:43 10° W 18:26:51 62° N 18:29:48 11° ENE
ERS-2 2.8 18:23:46 10° NNE 18:27:08 33° E 18:30:27 10° SSE
Cosmos 1844 Rocket 2.8 18:22:49 10° NNW 18:28:18 55° NE 18:33:46 10° SE
Cosmos 2084 Rocket 3.6 18:24:12 10° NW 18:28:31 84° SW 18:32:59 10° SE
FALCON 9 DEB 3.2 18:25:38 10° W 18:28:49 63° N 18:31:45 12° ENE
Okean-O 2.6 18:25:06 10° SSE 18:29:31 78° ENE 18:33:58 10° NNW
CSL-04 Rocket 3.8 18:25:36 10° SE 18:31:00 56° ENE 18:36:23 10° N
USA 308 3.1 18:27:29 10° W 18:31:46 67° N 18:35:51 11° ENE
CSL-04 Debris 4.2 18:26:59 10° SSE 18:32:19 61° ENE 18:37:44 10° N
Cosmos 1271 Rocket 3.7 18:29:11 10° NNW 18:32:50 50° W 18:36:28 10° S
Cosmos 1503 Rocket 4.0 18:29:45 10° NNW 18:34:58 67° ENE 18:40:06 10° SE
Cosmos 1666 4.1 18:32:34 10° SE 18:34:59 17° E 18:37:24 10° NE
H-2A R/B 3.6 18:32:11 10° N 18:36:00 38° WNW 18:39:49 10° SW
SKYMED 2 4.0 18:32:51 10° N 18:37:11 66° WNW 18:41:29 10° SSW
HJ-1C 3.3 18:34:07 10° SSE 18:37:23 63° ENE 18:40:41 10° N
MOS 1 Rocket 4.1 18:33:15 10° N 18:38:11 62° WNW 18:43:22 10° SSW
PSLV R/B 4.0 18:34:13 10° NNE 18:38:17 57° E 18:42:16 10° S
Cosmos 1844 3.9 18:34:23 10° NNW 18:40:07 57° NE 18:45:46 10° SE
CZ-4B R/B 2.1 18:39:20 10° N 18:42:19 52° WNW 18:45:18 10° SSW
Cosmos 1470 Rocket 3.7 18:38:27 10° S 18:42:48 54° E 18:47:10 10° NNE
Cosmos 2360 Rocket 2.7 18:40:01 10° S 18:45:09 38° ESE 18:50:21 10° NE
Cosmos 2278 Rocket 3.5 18:40:43 10° NNW 18:45:12 23° NE 18:48:36 14° E
Cosmos 1602 3.7 18:42:31 10° S 18:46:25 86° E 18:50:22 10° N
Ariane Rocket 3.9 18:42:09 10° ESE 18:46:32 29° ENE 18:50:54 10° N
Meteor 1-19 Rocket 4.4 18:41:51 10° NNW 18:47:51 86° WSW 18:53:40 10° S
Meteor 2-4 Rocket 3.8 18:46:35 10° N 18:52:24 67° ENE 18:58:18 10° SSE
Cosmos 1703 Rocket 3.8 18:48:26 10° N 18:52:44 48° ENE 18:56:57 10° SSE
DMSP B5D1-3 4.5 18:48:12 10° NNE 18:53:22 67° ESE 18:58:30 10° S
Cosmos 1500 3.3 18:49:53 10° S 18:53:29 49° E 18:57:06 10° NNE
Cosmos 2333 Rocket 3.3 18:51:20 10° SSE 18:55:33 22° ESE 18:59:48 10° NE
Cosmos 1689 Rocket 1.8 18:52:50 10° NNE 18:55:44 75° ESE 18:58:36 10° S
SL-08 RB Rocket 3.6 18:53:36 10° SSE 18:58:06 79° ENE 19:02:42 10° NNW
Meteor 2-12 Rocket 4.4 18:53:02 10° S 18:59:02 71° E 19:05:08 10° NNE
ERBS 2.6 18:56:41 10° WSW 18:59:58 63° NNW 19:02:19 18° NE
Cosmos 1980 Rocket 3.8 18:56:11 10° WSW 19:01:21 35° NW 19:06:35 10° NNE
Aureole 2 Rocket 3.0 19:01:07 10° NW 19:03:33 39° WSW 19:05:56 10° S
Cosmos 1943 Rocket 4.3 19:01:16 10° N 19:03:40 13° NNE 19:06:03 10° NE
Cosmos 1933 Rocket 3.5 18:59:26 10° S 19:03:42 58° E 19:08:02 10° NNE
Cosmos 2242 Rocket 3.5 19:06:17 10° N 19:10:50 79° E 19:15:18 10° SSE
Resurs 01 Rocket 2.9 19:12:41 21° ENE 19:13:09 22° ENE 19:16:32 10° N
Cosmos 2322 Rocket 2.2 19:09:21 10° SSW 19:14:59 85° WNW 19:20:40 10° NNE
Cosmos 1461 4.0 19:10:29 10° WSW 19:15:06 50° NW 19:19:44 10° NE
Abrixas rocket 2.1 19:13:37 10° WSW 19:15:59 41° S 19:16:07 41° SSE
Lacrosse 4 Rocket 3.6 19:13:55 10° SSE 19:14:29 12° SSE 19:14:29 12° SSE
FALCON 9 DEB 3.1 19:16:45 10° WNW 19:19:55 64° N 19:20:46 42° ENE
Helios 1A Rocket 3.8 19:16:36 10° S 19:20:33 50° W 19:24:30 10° NNW
YAOGAN 1 4.4 19:17:32 10° SSW 19:21:27 33° W 19:25:24 10° NNW
SJ-6B 2.8 19:22:30 19° SSE 19:25:21 64° ENE 19:29:22 10° N
COSMOS 2428 3.6 19:20:48 10° SSE 19:32:12 - NE 19:24:51 26° ESE
ASTEX 1 3.7 19:21:40 10° NNE 19:26:20 42° E 19:30:11 14° SSE
Cosmos 2154 Rocket 4.5 19:22:42 10° SSW 19:28:51 63° WNW 19:35:03 10° N
GP-B 3.2 19:25:02 10° S 19:29:27 77° W 19:33:55 10° N
Meteor 1-14 Rocket 4.3 19:24:28 10° SSW 19:30:02 78° WNW 19:35:36 10° N
MOS 1 4.3 19:25:33 15° SSE 19:30:19 64° ENE 19:35:56 10° N
Cosmos 2219 Rocket 2.7 19:27:19 10° S 19:32:19 35° ESE 19:37:22 10° NE
FALCON 9 DEB 2.9 19:29:11 10° WNW 19:32:22 69° N 19:32:42 62° NE
Meteor 1-11 Rocket 3.9 19:27:24 10° SSE 19:32:50 47° E 19:38:11 10° NNE
MetOp-A 4.1 19:29:02 10° SSE 19:34:25 87° W 19:39:49 10° NNW
OBJECT-B 0.6 19:36:26 68° ESE 19:36:36 70° ENE 19:39:49 10° N
Cosmos 1992 Rocket 4.4 19:31:51 10° SW 19:37:03 64° WNW 19:42:16 10° NNE
SJ 16-02 1.9 19:35:10 10° N 19:39:19 38° ENE 19:39:34 38° ENE
SL-16 R/B 3.1 19:34:16 10° SW 19:39:46 50° NW 19:45:20 10° NNE
Resurs 1-3 3.7 19:38:47 42° ESE 19:39:51 53° ENE 19:44:09 10° N
Okean 1-7 3.4 19:35:38 10° NNW 19:39:59 65° W 19:44:16 10° S
SeaSat 1 2.4 19:35:10 10° NNE 19:40:09 86° NW 19:45:05 10° SW
Terra 4.1 19:42:57 10° NE 19:42:57 10° NE 19:42:57 10° NE
Cosmos 1066 Rocket 4.2 19:36:27 10° N 19:42:08 66° ENE 19:45:41 24° SSE
Meteor 1-13 Rocket 4.3 19:36:33 10° NNW 19:42:35 87° E 19:48:27 10° SSE
USA 234 3.4 19:39:54 26° ENE 19:43:30 51° SE 19:49:50 10° SW
Cosmos 1536 4.4 19:46:16 22° NNE 19:46:16 22° NNE 19:47:54 10° NNE
CZ-4 R/B 4.4 19:42:43 10° SW 19:45:05 15° W 19:47:28 10° NW
CZ-2C R/B 3.1 19:42:12 10° N 19:47:40 65° WNW 19:52:59 10° SSW
Cosmos 2369 Rocket 4.2 19:46:14 10° N 19:48:58 13° NNE 19:50:42 12° NE
H-2A R/B 4.5 19:45:16 10° SW 19:49:39 24° W 19:54:03 10° NW
USA 305 3.1 19:45:53 10° WNW 19:50:08 61° N 19:50:56 50° NE
BREEZE-M DEB (TANK) 2.4 19:47:49 10° W 19:50:25 68° S 19:51:09 53° SE
IRS-1A Rocket 4.2 19:46:43 16° SSE 19:51:17 90° W 19:56:52 10° NNW
Cosmos 2322 3.7 19:46:35 10° SSW 19:52:12 60° ESE 19:57:50 10° NE
DMSP B5D2-2 4.1 19:48:15 10° NNE 19:53:32 82° WNW 19:58:44 10° SSW
SL-4 R/B 2.0 19:50:59 10° W 19:54:12 52° SW 19:54:12 52° SW
USA 186 3.4 19:56:42 25° WNW 19:56:42 25° WNW 19:58:28 10° NW
Cosmos 1898 Rocket 4.3 19:53:05 10° NNW 19:57:49 34° NE 19:57:50 34° NE
Cosmos 1869 Rocket 3.4 19:53:38 10° S 19:57:59 88° ESE 20:02:26 10° N
Gbstr 26 Del rocket 3.4 19:54:53 10° W 19:59:37 86° N 20:00:59 52° E
SL-8 Rocket 4.0 19:54:17 10° S 20:00:33 83° W 20:06:47 10° N
USA 307 3.0 19:57:13 10° WNW 20:01:28 63° N 20:01:49 60° NE
FALCON 9 DEB 4.0 19:59:39 10° WNW 20:01:56 44° WNW 20:01:56 44° WNW
ATLAS CENTAUR R/B 1.3 19:59:21 10° SW 20:02:56 64° NW 20:03:11 62° NNW
Cosmos 1378 3.2 20:00:31 10° NNW 20:03:53 70° NNW 20:03:53 70° NNW
USA 306 3.0 20:00:36 10° WNW 20:04:51 64° N 20:05:03 63° NNE
FALCON 9 DEB 4.1 20:01:41 10° WNW 20:03:59 43° WNW 20:03:59 43° WNW
Cosmos 1666 3.7 20:06:36 10° SSW 20:10:11 45° WNW 20:13:50 10° N
Cosmos 1844 Rocket 4.3 20:07:07 10° NW 20:11:57 31° WSW 20:16:44 10° SSW
USA 308 3.0 20:07:49 10° WNW 20:12:00 65° N 20:12:00 65° N
Cosmos 2366 rocket 4.1 20:09:16 10° SSW 20:15:36 80° W 20:22:01 10° N
NOSS 3-3 (A) 4.4 20:08:41 10° NW 20:16:00 78° NE 20:18:42 46° ESE
NOSS 3-3 (C) 4.4 20:08:47 10° NW 20:16:06 78° NE 20:18:47 46° ESE
Landsat 7 4.3 20:17:05 48° NNE 20:17:05 48° NNE 20:20:56 10° N
SL-08 R/B 4.4 20:11:58 20° S 20:16:38 70° E 20:23:05 10° NNE
Okean 3 4.2 20:14:02 10° NNW 20:18:10 51° W 20:19:31 36° SSW
SPOT 3 Rocket 3.4 20:18:38 69° SE 20:19:13 81° ENE 20:24:29 10° NNW
ARIANE 5 R/B 4.1 20:21:37 26° NNE 20:21:37 26° NNE 20:23:57 10° N
Cosmos 2333 4.2 20:17:11 10° SSW 20:22:51 80° WNW 20:28:36 10° NNE
Cosmos 2221 Rocket 3.7 20:19:05 10° NNW 20:23:09 73° NW 20:23:09 73° NW
Ariane Rocket 3.8 20:22:15 22° SSW 20:25:17 50° W 20:30:16 10° NNW
SPOT 1/Viking Rocket 4.0 20:29:55 47° NNE 20:29:55 47° NNE 20:34:00 10° N
Cosmos 2360 Rocket 3.2 20:23:39 10° SW 20:29:05 47° NW 20:34:35 10° NNE
Cosmos 2278 Rocket 2.0 20:24:26 10° NNW 20:30:10 84° ENE 20:30:28 80° ESE
Cosmos 1727 Rocket 4.2 20:28:29 10° NNW 20:34:36 66° W 20:37:44 30° SSW
Cosmos 990 Rocket 4.2 20:29:38 10° NNW 20:34:05 59° NNE 20:34:05 59° NNE
Cosmos 2333 Rocket 2.3 20:33:31 10° SW 20:39:13 76° WNW 20:44:59 10° NNE
Cosmos 1821 Rocket 3.8 20:41:55 75° ENE 20:41:55 75° ENE 20:47:49 10° NNE
Cosmos 1000 Rocket 4.4 20:41:34 10° N 20:47:53 85° W 20:48:32 73° S
Resurs 01 Rocket 2.6 20:50:14 46° WNW 20:50:14 46° WNW 20:53:41 10° NNW
Cosmos 1943 Rocket 3.4 20:44:18 10° NNW 20:48:24 30° NNE 20:48:24 30° NNE
MetOp-B 4.2 20:50:11 73° NW 20:50:11 73° NW 20:55:06 10° NNW
Cosmos 2322 Rocket 4.4 20:55:28 10° W 20:59:53 23° NW 21:04:19 10° NNE
Cosmos 2123 Rocket 4.1 20:54:42 10° N 21:00:10 67° NNE 21:00:10 67° NNE
COSMOS 2428 3.7 21:03:43 10° SW 21:14:01 16° NNE 21:15:03 10° NNE
Cosmos 2219 Rocket 2.9 21:10:42 10° SW 21:16:07 49° NW 21:21:37 10° NNE
SJ 16-02 3.4 21:13:58 10° NW 21:16:35 25° WNW 21:16:35 25° WNW
Terra 3.9 21:21:50 21° N 21:21:50 21° N 21:23:24 10° N
USA 234 3.3 21:27:15 71° WNW 21:27:15 71° WNW 21:33:17 10° WSW
USA 281 3.9 21:34:30 46° N 21:34:30 46° N 21:39:26 10° NNW
Cosmos 2369 Rocket 3.8 21:29:32 10° NNW 21:32:29 27° N 21:32:29 27° N
Cosmos 2278 Rocket 4.4 22:09:40 10° WNW 22:12:20 18° W 22:12:20 18° W
Cosmos 2333 Rocket 4.4 22:20:06 10° W 22:24:29 22° NW 22:28:52 10° NNE
Cosmos 1943 Rocket 4.3 22:27:55 10° NW 22:29:55 22° NW 22:29:55 22° NW
